Find Starlink 32734

NORAD ID: 62476 Int'l Des: 2024-254 Owner: SPXS Country: US Constellation: starlink operational
LEOCIRCULAR

現在のビュー

3D地球を読み込み中...

About Starlink 32734

Starlink 32734 (NORAD 62476) is a starlink constellation satellite (v2 mini) launched Dec 31, 2024 by SPXS of US. It operates in LEO, CIRCULAR orbit with a mass of 730.00 kg.

次回通過

Passes for default location (London). Set your location on the main map for personalized predictions.

高度履歴

Loading altitude history...

軌道要素

1 62476U 24254Q 26264.53745994 .00010646 00000-0 39571-3 0 9993
2 62476 43.0008 350.4732 0001718 274.2170 85.8485 15.27589560 97604
Epoch: Sep 21, 2026 • Age: 11 hours

現在のステータス

高度 484.5 km
遠地点 / 近地点 N/A
速度 7.63 km/s
衛星直下点 31.10°N, 25.54°E
打ち上げ日 Dec 31, 2024
運用期間 1.7 years
タイプ internet

技術仕様

分類 Payload
質量 730.00 kg
乾燥質量 700.00 kg
長さ 0.30 m
スパン 29.00 m
形状 ? Box + pan
製造者 SPXS
バスタイプ Starlink V2M
フェーズステータス In Orbit
所有者/国 SPXS/US

Most Searched